STARLINK-1331, 45578

Orbit data source: Space-Track

STARLINK-1331, 45578 is a payload satellite owned by SpaceX/Seattle (US) in LEO that was launched on Wed, 22 Apr 2020 UTC via an FALCON 9 launch vehicle from the Air Force Eastern Test Range (AFETR). Payload-class satellites include a variety of spacecraft equipped with specific instruments for various scientific and technological missions. These include communications satellites like Starlink; space stations such as the ISS; scientific satellites like the Hubble; Earth observation satellites from companies like Planet Labs, Umbra, and HawkEye 360; GPS; miniature CubeSats for education and research; and military/defense satellites.

Loading next visibility...
Identifier
45578, 2020-025AZ
Orbit
LEO
Country
Flag of USUS
Related business
Manufacturer
SpaceX/Seattle
Mission
Partially operational Commercial Communications
Bus & Motor
STARLINK, Unknown motor
Mass
260 kg wet, ~248 kg dry
Launch date (UTC)
2020-04-22 (6 years ago)
Launch vehicle
FALCON 9
Launch site
Air Force Eastern Test Range (AFETR)
Object type
Payload
Rocket body
Debris
Shape & HBR
Box + 1 Pan, 10.1 m
Radar Cross Section
13.562 m², Large (>1 m²)

Expand to show TLE details & history
Last TLE update: 9 hours ago

TLE from 9 hours ago
0 STARLINK-1331
1 45578U 20025AZ  26170.58340596  .00488433  00000-0  44450-2 0  9993
2 45578  53.0451 291.2112 0001640  79.2493 280.8706 15.65870069341558
Epoch: 2026-06-19T14:00Z
TLE epoch observation values (Epoch: 2026-06-19T14:00:06.274Z)
Latitude
-0.00007°
Longitude
173.37471°
Altitude
371.43 km
Speed
7.688 km/s
True Right ascension
19h 24m 50s
True Declination
0° 00' 00"
Sunlit
Object was in full shadow at epoch
Visualization orbit readout
Latitude
Unknown
Longitude
Unknown
Altitude
Unknown
Speed
Unknown
Apparent Right ascension
Unknown
Apparent Declination
Unknown
Sunlit
N/A
Visualization observer readout
Local Sidereal Time
09:58:04
Azimuth
Unknown
Elevation
Unknown
Doppler factor
Unknown
Orbital elements
Apogee altitude
372.124 km
Perigee altitude
369.91 km
Semi-major axis
6,749.154 km
Eccentricity
0.00016
Inclination
53.0451°
RAAN
291.2112°
Arg. of periapsis
79.2493°
True anomaly
280.85214°
Mean anomaly
280.8706°
Eccentric anomaly
280.86137°
Mean motion
3.91444 °/min
Orbital period
91.97 mins
BSTAR
0.004445
Loading maneuver chart data...
Computing Atmospheric mass density...

Documentation

Showing up to 5 results
|